Location: ActonStarParty
(42.4766°N, 71.4538°W)
Time: 06:11:42
(UTC-04:00)

NOSS 2-1 (D) - Pass Details

Date: 19 April 2018
Orbit: 485 x 1720 km, 63.3° (Epoch: 04 September)

Event Time Altitude Azimuth Distance (km) Brightness Sun altitude
Rises 20:12:57 0° 205° (SSW) 2,556 6.8 -7.9°
Reaches altitude 10° 20:15:03 10° 202° (SSW) 1,660 5.8 -8.2°
Maximum altitude 20:18:34 59° 122° (ESE) 575 3.1 -8.8°
Drops below altitude 10° 20:22:25 10° 42° (NE) 1,817 5.8 -9.5°
Sets 20:24:49 0° 39° (NE) 2,831 6.8 -9.9°
